Monterey, CA

8:16 AM PDT on July 26, 2017 (GMT -0700)
Monterey Peninsula

Weather History for KMRY - April, 2014

Change the Weather History Date:

Wednesday, April 2, 2014

  Actual Average Record
Temperature  
Mean Temperature 53 °F 53 °F  
Max Temperature 60 °F 61 °F 80 °F (2000)
Min Temperature 46 °F 46 °F 40 °F (2015)
Degree Days  
Heating Degree Days 12    
Month to date heating degree days 24  
Since 1 July heating degree days 2069  
Cooling Degree Days 0    
Month to date cooling degree days 0  
Year to date cooling degree days 2  
Growing Degree Days 2 (Base 50)    
Moisture  
Dew Point 43 °F    
Average Humidity 65    
Maximum Humidity 86    
Minimum Humidity 44    
Precipitation  
Precipitation 0.21 in - 0.33 in (2003)
Month to date precipitation 0.60  
Year to date precipitation 6.70  
Since 1 July precipitation 7.98  
Sea Level Pressure  
Sea Level Pressure 30.06 in    
Wind  
Wind Speed 6 mph (South)    
Max Wind Speed 16 mph    
Max Gust Speed 21 mph    
Visibility 10 miles    
Events Rain    
T = Trace of Precipitation, MM = Missing Value Source: NWS Daily Summary

Daily Weather History Graph

Daily Weather History Graph

Search for Another Location

Airport or City:

Trip Planner

Search our weather history database for the weather conditions in past years. The results will help you decide how hot, cold, wet, or windy it might be!

Date:

Astronomy

Apr. 02, 2014 Rise Set
Actual Time 6:51 AM PDT 7:30 PM PDT
Civil Twilight 6:25 AM PDT 7:56 PM PDT
Nautical Twilight 5:55 AM PDT 8:27 PM PDT
Astronomical Twilight 5:23 AM PDT 8:58 PM PDT
Moon 8:44 AM PDT (4/2) 10:53 PM PDT (4/2)
Length of Visible Light 13h 30m
Length of Day
12h 38m
Waxing Crescent, 11% of the Moon is Illuminated
Apr 2
Waxing Crescent
Apr 7
First Quarter
Apr 15
Full
Apr 22
Last Quarter
Apr 28
New

Hourly Weather History & Observations

Time (PDT) Temp. Dew Point Humidity Pressure Visibility Wind Dir Wind Speed Gust Speed Precip Events Conditions
12:54 AM 48.9 °F 43.0 °F 80% 29.95 in 10.0 mi South 4.6 mph - N/A   Mostly Cloudy
1:54 AM 48.9 °F 43.0 °F 80% 29.96 in 4.0 mi Calm Calm - 0.04 in Rain Light Rain
2:54 AM 46.0 °F 43.0 °F 89% 29.95 in 10.0 mi Calm Calm - 0.04 in   Partly Cloudy
3:54 AM 48.0 °F 43.0 °F 83% 29.95 in 10.0 mi ESE 5.8 mph - N/A   Mostly Cloudy
4:09 AM 46.4 °F 42.8 °F 87% 29.91 in 10.0 mi Calm Calm - N/A   Mostly Cloudy
5:54 AM 46.9 °F 42.1 °F 83% 29.96 in 10.0 mi East 8.1 mph - N/A   Mostly Cloudy
6:54 AM 46.9 °F 43.0 °F 86% 29.99 in 7.0 mi SSE 3.5 mph - 0.06 in Rain Rain
7:54 AM 48.0 °F 42.1 °F 80% 30.00 in 10.0 mi East 5.8 mph - 0.07 in   Overcast
8:54 AM 51.1 °F 44.1 °F 77% 30.03 in 10.0 mi East 5.8 mph - N/A   Scattered Clouds
9:54 AM 54.0 °F 43.0 °F 66% 30.04 in 10.0 mi East 5.8 mph - N/A   Clear
10:54 AM 55.0 °F 43.0 °F 64% 30.07 in 10.0 mi West 4.6 mph - N/A   Mostly Cloudy
11:54 AM 59.0 °F 37.0 °F 44% 30.09 in 10.0 mi ENE 3.5 mph - N/A   Mostly Cloudy
12:54 PM 57.9 °F 43.0 °F 58% 30.09 in 10.0 mi NW 10.4 mph - N/A   Scattered Clouds
1:54 PM 59.0 °F 41.0 °F 51% 30.11 in 10.0 mi NW 8.1 mph - N/A   Clear
2:54 PM 57.9 °F 43.0 °F 58% 30.11 in 10.0 mi WNW 15.0 mph 20.7 mph N/A   Clear
3:54 PM 57.9 °F 45.0 °F 62% 30.11 in 10.0 mi WNW 11.5 mph - N/A   Scattered Clouds
4:54 PM 57.9 °F 43.0 °F 58% 30.12 in 10.0 mi West 10.4 mph 17.3 mph N/A   Scattered Clouds
5:54 PM 57.0 °F 43.0 °F 59% 30.13 in 10.0 mi WSW 10.4 mph - N/A   Clear
6:54 PM 55.9 °F 42.1 °F 60% 30.12 in 10.0 mi WSW 5.8 mph - N/A   Partly Cloudy
7:54 PM 54.0 °F 44.1 °F 69% 30.13 in 10.0 mi SSW 3.5 mph - N/A   Clear
9:45 PM 51.8 °F 44.6 °F 76% 30.12 in 10.0 mi South 5.8 mph - N/A   Mostly Cloudy
9:54 PM 52.0 °F 44.1 °F 74% 30.16 in 10.0 mi South 5.8 mph - N/A   Mostly Cloudy
10:06 PM 51.8 °F 44.6 °F 76% 30.12 in 10.0 mi South 5.8 mph - N/A   Scattered Clouds
10:54 PM 52.0 °F 45.0 °F 77% 30.15 in 10.0 mi SSE 4.6 mph - N/A   Clear
11:54 PM 51.1 °F 43.0 °F 74% 30.15 in 10.0 mi SSE 5.8 mph - N/A   Clear